User: anonymous   Login
Location: El Limón
(10.3059°N, 67.6321°W)
Time: 22:50:52
(UTC+00:00)
Language:

Cosmos 2266 Rocket - Orbit

View from above orbital plane
View from above orbital plane
View from above satellite
View from above satellite

Ground track
Ground track

The orbit data is extracted from the following two-line orbital elements,

1 22889U 93070B   24168.88545737  .00000054  00000-0  38554-4 0  9994
2 22889  82.9453 215.2057 0048322 261.5263  98.0417 13.78116376539489
Epoch (UTC): 16 June 2024 21:15:03
Eccentricity: 0.0048322
inclination: 82.9453°
perigee height: 935 km
apogee height: 1006 km
right ascension of ascending node: 215.2057°
argument of perigee: 261.5263°
revolutions per day: 13.78116376
mean anomaly at epoch: 98.0417°
orbit number at epoch: 53948

The dashed part of the orbit path shows where the satellite is in the earth's shadow,  

DLR